This demonstration page uses our WeatherBlox Daily Observations layout. Learn more.

Left ArrowRight Arrow

39.51506, -84.39828

Hourly Observations for January 27, 2022

Temp ( °F °C ) Dew Point ( °F °C ) Humidity (%) Winds ( mph kmh ) Pressure ( in mb ) Visibility ( mi km ) Precip ( " mm )
12:15 am 00:15 Clear 8 -13.6 5 -15.1 89 89 Calm 30.45 1031 10 16 0.00 0.00
12:35 am 00:35 Clear 7 -13.7 4 -15.3 88 88 Calm 30.46 1031 10 16 0.00 0.00
12:55 am 00:55 Clear 7 -14 4 -15.5 89 89 Calm 30.45 1031 7 11 0.00 0.00
1:15 am 01:15 Clear 6 -14.2 3 -15.9 87 87 Calm 30.45 1031 10 16 0.00 0.00
1:35 am 01:35 Clear 7 -14.1 4 -15.8 87 87 Calm 30.43 1030 10 16 0.00 0.00
1:55 am 01:55 Clear 6 -14.2 4 -15.7 89 89 Calm 30.42 1030 10 16 0.00 0.00
2:15 am 02:15 Clear 6 -14.4 4 -15.8 89 89 Calm 30.43 1030 10 16 0.00 0.00
2:35 am 02:35 Clear 5 -14.8 3 -16.2 89 89 Calm 30.43 1030 10 16 0.00 0.00
2:55 am 02:55 Clear 6 -14.3 4 -15.6 90 90 Calm 30.43 1030 10 16 0.00 0.00
3:15 am 03:15 Clear 6 -14.3 4 -15.5 91 91 Calm 30.43 1030 10 16 0.00 0.00
3:35 am 03:35 Clear 7 -13.9 5 -15.1 91 91 Calm 30.43 1030 10 16 0.00 0.00
3:55 am 03:55 Clear 6 -14.3 3 -16 87 87 Calm 30.41 1030 10 16 0.00 0.00
4:15 am 04:15 Clear 5 -15.1 2 -16.8 87 87 Calm 30.41 1030 10 16 0.00 0.00
4:35 am 04:35 Clear 5 -14.9 2 -16.7 86 86 Calm 30.39 1029 10 16 0.00 0.00
4:55 am 04:55 Clear 5 -14.8 2 -16.4 88 88 Calm 30.39 1029 10 16 0.00 0.00
5:15 am 05:15 Clear 4 -15.8 0 -17.7 85 85 Calm 30.39 1029 10 16 0.00 0.00
5:35 am 05:35 Clear 6 -14.7 3 -16.2 88 88 Calm 30.40 1029 10 16 0.00 0.00
5:55 am 05:55 Clear 7 -14 4 -15.6 88 88 Calm 30.40 1029 10 16 0.00 0.00
6:15 am 06:15 Clear 4 -15.3 1 -17.2 86 86 Calm 30.40 1029 10 16 0.00 0.00
6:35 am 06:35 Clear 6 -14.3 3 -16 87 87 Calm 30.40 1029 10 16 0.00 0.00
6:55 am 06:55 Partly Cloudy 8 -13.6 5 -15.2 88 88 Calm 30.40 1030 10 16 0.00 0.00
7:15 am 07:15 Mostly Cloudy 8 -13.5 5 -15.2 87 87 Calm 30.40 1030 10 16 0.00 0.00
7:35 am 07:35 Mostly Cloudy 10 -12.3 7 -13.9 88 88 Calm 30.39 1029 10 16 0.00 0.00
7:55 am 07:55 Cloudy 13 -10.6 9 -12.6 85 85 WSW 6 9 30.38 1029 10 16 0.00 0.00
8:15 am 08:15 Cloudy 13 -10.3 10 -12.4 85 85 W 5 7 30.38 1029 10 16 0.00 0.00
8:35 am 08:35 Cloudy 15 -9.7 9 -12.7 79 79 WSW 3 6 30.37 1029 10 16 0.00 0.00
8:55 am 08:55 Cloudy 15 -9.3 10 -12.2 80 80 W 6 9 30.38 1029 10 16 0.00 0.00
9:15 am 09:15 Cloudy 16 -8.7 11 -11.9 78 78 W 7 11 30.38 1029 10 16 0.00 0.00
9:35 am 09:35 Cloudy 18 -8 11 -11.9 74 74 WSW 6 9 30.37 1028 10 16 0.00 0.00
9:55 am 09:55 Cloudy 20 -6.9 12 -11 73 73 WSW 7 11 30.36 1028 10 16 0.00 0.00
10:15 am 10:15 Cloudy 21 -6.2 12 -11.1 69 69 WSW 7 11 30.35 1028 10 16 0.00 0.00
10:35 am 10:35 Cloudy 22 -5.4 12 -11.1 65 65 SW 12 19 30.35 1028 10 16 0.00 0.00
10:55 am 10:55 Cloudy 24 -4.5 11 -11.5 58 58 WSW 8 13 30.35 1028 10 16 0.00 0.00
11:15 am 11:15 Cloudy 26 -3.2 8 -13.5 45 45 W 15 24 30.33 1027 10 16 0.00 0.00
11:35 am 11:35 Cloudy 27 -2.7 8 -13.5 44 44 WSW 16 26 30.32 1027 10 16 0.00 0.00
11:55 am 11:55 Cloudy 28 -2 8 -13.1 43 43 W 14 22 30.31 1026 10 16 0.00 0.00
12:15 pm 12:15 Cloudy 30 -0.9 9 -12.9 40 40 WSW 16 26 30.30 1026 10 16 0.00 0.00
12:35 pm 12:35 Cloudy 30 -1.1 12 -11.2 47 47 WSW 13 20 30.28 1025 10 16 0.00 0.00
12:55 pm 12:55 Cloudy 30 -1.1 16 -8.8 56 56 W 15 24 30.27 1025 10 16 0.00 0.00
1:15 pm 13:15 Cloudy 31 -0.6 17 -8.1 57 57 WSW 16 26 30.25 1024 10 16 0.00 0.00
1:35 pm 13:35 Cloudy with Light Snow 31 -0.7 21 -5.9 68 68 WSW 12 19 30.23 1024 10 16 0.00 0.00
1:55 pm 13:55 Cloudy 32 0 22 -5.3 68 68 W 14 22 30.23 1024 10 16 0.00 0.00
2:10 pm 14:10 Cloudy 33 0.5 23 -5.2 66 66 WSW 13 20 30.21 1023 10 16 0.00 0.00
2:35 pm 14:35 Cloudy 33 0.3 23 -5 68 68 W 13 20 30.21 1023 10 16 0.00 0.00
2:55 pm 14:55 Cloudy 32 0.1 23 -5 69 69 W 12 19 30.21 1023 10 16 0.00 0.00
3:15 pm 15:15 Cloudy 33 0.3 24 -4.3 72 72 W 14 22 30.19 1022 10 16 0.00 0.00
3:35 pm 15:35 Cloudy 33 0.3 25 -4.1 73 73 W 12 19 30.20 1023 10 16 0.00 0.00
3:55 pm 15:55 Cloudy with Light Snow 33 0.6 25 -3.9 72 72 WSW 13 20 30.20 1023 10 16 0.00 0.00
4:15 pm 16:15 Cloudy with Light Snow 33 0.6 25 -3.7 73 73 W 10 17 30.20 1023 10 16 0.00 0.00
4:35 pm 16:35 Cloudy with Light Snow 33 0.4 26 -3.1 78 78 W 13 20 30.20 1023 7 11 0.00 0.00
4:55 pm 16:55 Cloudy with Light Snow 33 0.3 25 -3.8 74 74 W 10 17 30.20 1023 10 16 0.00 0.00
5:15 pm 17:15 Cloudy with Light Snow 32 0.2 26 -3.6 76 76 W 9 15 30.21 1023 10 16 0.00 0.00
5:35 pm 17:35 Cloudy with Light Snow 32 0 26 -3.6 77 77 W 7 11 30.22 1023 10 16 0.00 0.00
5:55 pm 17:55 Cloudy 32 0 25 -3.7 76 76 W 7 11 30.22 1023 10 16 0.00 0.00
6:15 pm 18:15 Cloudy with Light Snow 32 0 26 -3.3 79 79 WNW 6 9 30.23 1024 10 16 0.00 0.00
6:35 pm 18:35 Cloudy with Light Snow 31 -0.3 27 -2.6 85 85 W 5 7 30.23 1024 7 11 0.00 0.00
6:55 pm 18:55 Cloudy 31 -0.5 28 -2.2 88 88 W 5 7 30.24 1024 10 16 0.00 0.00
7:15 pm 19:15 Cloudy 31 -0.6 28 -2 90 90 WSW 6 9 30.24 1024 10 16 0.00 0.00
7:35 pm 19:35 Cloudy 31 -0.6 28 -2.2 89 89 W 3 6 30.25 1024 10 16 0.00 0.00
7:55 pm 19:55 Cloudy 30 -0.9 28 -2.5 89 89 WNW 3 6 30.25 1024 10 16 0.00 0.00
8:15 pm 20:15 Cloudy 31 -0.7 26 -3.3 83 83 W 7 11 30.25 1024 10 16 0.00 0.00
8:35 pm 20:35 Cloudy 31 -0.6 25 -4.1 77 77 Calm 30.25 1024 10 16 0.00 0.00
8:55 pm 20:55 Cloudy 31 -0.8 24 -4.4 77 77 NW 6 9 30.25 1024 10 16 0.00 0.00
9:15 pm 21:15 Mostly Cloudy 30 -1 24 -4.6 77 77 NW 8 13 30.26 1025 10 16 0.00 0.00
9:35 pm 21:35 Cloudy 30 -1.3 24 -4.5 79 79 NNW 7 11 30.25 1024 10 16 0.00 0.00
9:55 pm 21:55 Cloudy 30 -1.1 24 -4.6 77 77 Calm 30.25 1024 10 16 0.00 0.00
10:15 pm 22:15 Cloudy 30 -1.1 23 -4.8 76 76 W 3 6 30.24 1024 10 16 0.00 0.00
10:35 pm 22:35 Cloudy 29 -1.5 24 -4.5 80 80 WSW 5 7 30.24 1024 10 16 0.00 0.00
10:55 pm 22:55 Cloudy 30 -1.3 24 -4.5 79 79 W 3 6 30.24 1024 10 16 0.00 0.00
11:15 pm 23:15 Cloudy 30 -1.3 24 -4.5 79 79 WSW 3 6 30.24 1024 10 16 0.00 0.00
11:35 pm 23:35 Cloudy 30 -1.2 24 -4.4 79 79 W 3 6 30.24 1024 10 16 0.00 0.00
11:55 pm 23:55 Cloudy with Light Rain 30 -1.3 24 -4.5 79 79 W 3 6 30.24 1024 10 16 0.00 0.00

Powered by AerisWeather